| time (UTC) | temp F | wind direction | speed MPH | gust MPH | rain 1hr in | rain 24hr in | rain mn in | humidity % | barometer mb |
| 20260901153604 | 93 | 81 | 1.0 | 2.0 | 0.00 | 0.00 | 0.00 | 57 | 1017.9 |
| 20260901153103 | 91 | 276 | 0.0 | 2.0 | 0.00 | 0.00 | 0.00 | 60 | 1018.1 |
| 20260901152558 | 92 | 106 | 1.0 | 1.0 | 0.00 | 0.00 | 0.00 | 59 | 1017.9 |
| 20260901152057 | 90 | 270 | 0.0 | 2.0 | 0.00 | 0.00 | 0.00 | 61 | 1017.9 |
| 20260901151553 | 91 | 276 | 2.0 | 2.0 | 0.00 | 0.00 | 0.00 | 59 | 1017.7 |
| 20260901151052 | 90 | 96 | 0.0 | 2.0 | 0.00 | 0.00 | 0.00 | 60 | 1017.8 |
| 20260901150550 | 90 | 270 | 0.0 | 1.0 | 0.00 | 0.00 | 0.00 | 61 | 1018.2 |
| 20260901150049 | 90 | 180 | 0.0 | 2.0 | 0.00 | 0.00 | 0.00 | 61 | 1018.0 |
| 20260901145543 | 88 | 99 | 0.0 | 1.0 | 0.00 | 0.00 | 0.00 | 63 | 1017.8 |
| 20260901145042 | 88 | 249 | 0.0 | 1.0 | 0.00 | 0.00 | 0.00 | 65 | 1017.9 |
| 20260901144538 | 88 | 270 | 0.0 | 1.0 | 0.00 | 0.00 | 0.00 | 65 | 1018.0 |
| 20260901144033 | 87 | 336 | 0.0 | 2.0 | 0.00 | 0.00 | 0.00 | 65 | 1018.2 |
| 20260901143528 | 86 | 294 | 0.0 | 1.0 | 0.00 | 0.00 | 0.00 | 66 | 1017.9 |
| 20260901143026 | 86 | 337 | 2.0 | 2.0 | 0.00 | 0.00 | 0.00 | 67 | 1018.1 |
| 20260901142525 | 86 | 270 | 1.0 | 2.0 | 0.00 | 0.00 | 0.00 | 68 | 1018.0 |
| 20260901142020 | 86 | 99 | 0.0 | 1.0 | 0.00 | 0.00 | 0.00 | 68 | 1018.1 |
| 20260901141520 | 86 | 180 | 0.0 | 2.0 | 0.00 | 0.00 | 0.00 | 68 | 1017.9 |
| 20260901141015 | 85 | 195 | 0.0 | 1.0 | 0.00 | 0.00 | 0.00 | 68 | 1018.4 |
| 20260901140514 | 85 | 66 | 0.0 | 2.0 | 0.00 | 0.00 | 0.00 | 69 | 1018.3 |
| 20260901140009 | 85 | 270 | 0.0 | 1.0 | 0.00 | 0.00 | 0.00 | 69 | 1018.2 |
| 20260901135508 | 84 | 261 | 0.0 | 2.0 | 0.00 | 0.00 | 0.00 | 70 | 1018.1 |
| 20260901135004 | 84 | 180 | 0.0 | 2.0 | 0.00 | 0.00 | 0.00 | 70 | 1018.2 |
| 20260901134500 | 84 | 97 | 0.0 | 0.0 | 0.00 | 0.00 | 0.00 | 72 | 1017.9 |
| 20260901134000 | 84 | 0 | 0.0 | 1.0 | 0.00 | 0.00 | 0.00 | 71 | 1018.0 |
| 20260901133458 | 83 | 90 | 0.0 | 1.0 | 0.00 | 0.00 | 0.00 | 72 | 1017.9 |
| 20260901132957 | 83 | 165 | 0.0 | 1.0 | 0.00 | 0.00 | 0.00 | 74 | 1018.0 |
| 20260901132457 | 82 | 188 | 0.0 | 2.0 | 0.00 | 0.00 | 0.00 | 75 | 1018.3 |
| 20260901131957 | 81 | 180 | 0.0 | 0.0 | 0.00 | 0.00 | 0.00 | 77 | 1017.7 |
| 20260901131456 | 81 | 180 | 0.0 | 0.0 | 0.00 | 0.00 | 0.00 | 79 | 1017.9 |
| 20260901130952 | 80 | 180 | 0.0 | 0.0 | 0.00 | 0.00 | 0.00 | 79 | 1017.6 |
| 20260901130447 | 80 | 198 | 1.0 | 1.0 | 0.00 | 0.00 | 0.00 | 80 | 1017.9 |
| 20260901125944 | 80 | 180 | 0.0 | 0.0 | 0.00 | 0.00 | 0.00 | 79 | 1017.5 |
| 20260901125439 | 80 | 180 | 0.0 | 1.0 | 0.00 | 0.00 | 0.00 | 79 | 1017.6 |
| 20260901124939 | 80 | 187 | 0.0 | 0.0 | 0.00 | 0.00 | 0.00 | 79 | 1017.4 |
| 20260901124434 | 80 | 187 | 0.0 | 0.0 | 0.00 | 0.00 | 0.00 | 79 | 1017.4 |
| 20260901123929 | 79 | 187 | 0.0 | 0.0 | 0.00 | 0.00 | 0.00 | 79 | 1017.4 |
| 20260901123424 | 79 | 188 | 0.0 | 0.0 | 0.00 | 0.00 | 0.00 | 78 | 1017.4 |
| 20260901122922 | 79 | 188 | 0.0 | 0.0 | 0.00 | 0.00 | 0.00 | 78 | 1017.3 |
| 20260901122416 | 79 | 173 | 0.0 | 0.0 | 0.00 | 0.00 | 0.00 | 78 | 1017.0 |
| 20260901121916 | 79 | 173 | 0.0 | 0.0 | 0.00 | 0.00 | 0.00 | 78 | 1017.2 |
| 20260901121411 | 79 | 180 | 0.0 | 0.0 | 0.00 | 0.00 | 0.00 | 79 | 1017.2 |
| 20260901120906 | 79 | 195 | 0.0 | 0.0 | 0.00 | 0.00 | 0.00 | 78 | 1017.3 |
| 20260901120406 | 79 | 173 | 0.0 | 0.0 | 0.00 | 0.00 | 0.00 | 78 | 1017.0 |
| 20260901115902 | 79 | 173 | 1.0 | 1.0 | 0.00 | 0.00 | 0.00 | 78 | 1017.2 |
| 20260901115401 | 79 | 187 | 0.0 | 0.0 | 0.00 | 0.00 | 0.00 | 78 | 1017.3 |
| 20260901114859 | 79 | 180 | 0.0 | 0.0 | 0.00 | 0.00 | 0.00 | 78 | 1016.9 |
| 20260901114355 | 79 | 180 | 0.0 | 0.0 | 0.00 | 0.00 | 0.00 | 79 | 1017.0 |
| 20260901113853 | 79 | 188 | 0.0 | 1.0 | 0.00 | 0.00 | 0.00 | 81 | 1016.9 |
| 20260901113352 | 79 | 203 | 0.0 | 1.0 | 0.00 | 0.00 | 0.00 | 78 | 1016.9 |
| 20260901112847 | 80 | 188 | 0.0 | 1.0 | 0.00 | 0.00 | 0.00 | 76 | 1016.8 |
| 20260901112347 | 80 | 188 | 0.0 | 1.0 | 0.00 | 0.00 | 0.00 | 77 | 1017.1 |
| 20260901111842 | 80 | 188 | 1.0 | 1.0 | 0.00 | 0.00 | 0.00 | 75 | 1016.8 |
| 20260901111340 | 80 | 188 | 0.0 | 1.0 | 0.00 | 0.00 | 0.00 | 74 | 1016.6 |
| 20260901110839 | 80 | 200 | 0.0 | 1.0 | 0.00 | 0.00 | 0.00 | 75 | 1016.6 |
| 20260901110335 | 81 | 188 | 0.0 | 0.0 | 0.00 | 0.00 | 0.00 | 75 | 1016.7 |
| 20260901105831 | 81 | 187 | 0.0 | 1.0 | 0.00 | 0.00 | 0.00 | 74 | 1016.7 |
| 20260901105326 | 81 | 188 | 0.0 | 1.0 | 0.00 | 0.00 | 0.00 | 74 | 1016.5 |
| 20260901104822 | 81 | 180 | 0.0 | 0.0 | 0.00 | 0.00 | 0.00 | 74 | 1016.7 |
| 20260901104317 | 81 | 180 | 0.0 | 0.0 | 0.00 | 0.00 | 0.00 | 74 | 1016.6 |
| 20260901103813 | 81 | 187 | 0.0 | 0.0 | 0.00 | 0.00 | 0.00 | 74 | 1016.4 |
| 20260901103312 | 81 | 180 | 0.0 | 0.0 | 0.00 | 0.00 | 0.00 | 74 | 1016.5 |
| 20260901102807 | 81 | 194 | 0.0 | 1.0 | 0.00 | 0.00 | 0.00 | 73 | 1016.6 |
| 20260901102305 | 81 | 173 | 0.0 | 0.0 | 0.00 | 0.00 | 0.00 | 73 | 1016.5 |
| 20260901101757 | 81 | 160 | 0.0 | 0.0 | 0.00 | 0.00 | 0.00 | 73 | 1016.6 |
| 20260901101257 | 82 | 160 | 0.0 | 0.0 | 0.00 | 0.00 | 0.00 | 72 | 1016.6 |
| 20260901100757 | 82 | 160 | 0.0 | 1.0 | 0.00 | 0.00 | 0.00 | 72 | 1016.7 |
| 20260901100251 | 82 | 188 | 0.0 | 0.0 | 0.00 | 0.00 | 0.00 | 71 | 1016.6 |
| 20260901095750 | 83 | 180 | 0.0 | 0.0 | 0.00 | 0.00 | 0.00 | 70 | 1016.6 |
| 20260901095248 | 83 | 234 | 0.0 | 1.0 | 0.00 | 0.00 | 0.00 | 69 | 1016.5 |
| 20260901094742 | 83 | 270 | 0.0 | 0.0 | 0.00 | 0.00 | 0.00 | 69 | 1016.7 |
| 20260901094237 | 84 | 180 | 0.0 | 2.0 | 0.00 | 0.00 | 0.00 | 68 | 1016.4 |
| 20260901093733 | 84 | 206 | 1.0 | 3.0 | 0.00 | 0.00 | 0.00 | 68 | 1016.6 |
| 20260901093231 | 84 | 180 | 0.0 | 1.0 | 0.00 | 0.00 | 0.00 | 68 | 1016.6 |
| 20260901092728 | 84 | 180 | 0.0 | 2.0 | 0.00 | 0.00 | 0.00 | 68 | 1017.0 |
| 20260901092223 | 84 | 194 | 1.0 | 2.0 | 0.00 | 0.00 | 0.00 | 67 | 1016.7 |
| 20260901091719 | 84 | 255 | 0.0 | 3.0 | 0.00 | 0.00 | 0.00 | 67 | 1016.6 |
| 20260901091214 | 84 | 261 | 0.0 | 2.0 | 0.00 | 0.00 | 0.00 | 67 | 1016.8 |
| 20260901090708 | 84 | 270 | 0.0 | 1.0 | 0.00 | 0.00 | 0.00 | 68 | 1016.7 |
| 20260901090204 | 84 | 261 | 0.0 | 0.0 | 0.00 | 0.00 | 0.00 | 66 | 1016.7 |
| 20260901085659 | 84 | 262 | 0.0 | 1.0 | 0.00 | 0.00 | 0.00 | 66 | 1016.8 |
| 20260901085155 | 84 | 261 | 0.0 | 2.0 | 0.00 | 0.00 | 0.00 | 65 | 1016.6 |
| 20260901084651 | 84 | 187 | 0.0 | 2.0 | 0.00 | 0.00 | 0.00 | 64 | 1016.7 |
| 20260901084148 | 84 | 277 | 0.0 | 2.0 | 0.00 | 0.00 | 0.00 | 64 | 1016.7 |
| 20260901083647 | 84 | 180 | 0.0 | 1.0 | 0.00 | 0.00 | 0.00 | 64 | 1016.4 |
| 20260901083146 | 84 | 195 | 0.0 | 3.0 | 0.00 | 0.00 | 0.00 | 64 | 1016.5 |
| 20260901082646 | 84 | 228 | 0.0 | 3.0 | 0.00 | 0.00 | 0.00 | 63 | 1016.4 |
| 20260901082141 | 84 | 334 | 1.0 | 1.0 | 0.00 | 0.00 | 0.00 | 63 | 1016.5 |
| 20260901081637 | 84 | 192 | 0.0 | 1.0 | 0.00 | 0.00 | 0.00 | 63 | 1016.4 |
| 20260901081131 | 84 | 175 | 0.0 | 2.0 | 0.00 | 0.00 | 0.00 | 63 | 1016.6 |
| 20260901080631 | 84 | 90 | 0.0 | 0.0 | 0.00 | 0.00 | 0.00 | 63 | 1016.4 |
| 20260901080130 | 84 | 270 | 0.0 | 0.0 | 0.00 | 0.00 | 0.00 | 64 | 1016.5 |
| 20260901075625 | 83 | 203 | 0.0 | 1.0 | 0.00 | 0.00 | 0.00 | 64 | 1016.4 |
| 20260901075125 | 83 | 187 | 1.0 | 1.0 | 0.00 | 0.00 | 0.00 | 64 | 1016.6 |
| 20260901074624 | 83 | 198 | 0.0 | 2.0 | 0.00 | 0.00 | 0.00 | 64 | 1016.5 |
| 20260901074120 | 83 | 180 | 0.0 | 0.0 | 0.00 | 0.00 | 0.00 | 63 | 1016.3 |
| 20260901073616 | 83 | 180 | 0.0 | 0.0 | 0.00 | 0.00 | 0.00 | 62 | 1016.6 |
| 20260901073111 | 84 | 180 | 0.0 | 0.0 | 0.00 | 0.00 | 0.00 | 62 | 1016.5 |
| 20260901072607 | 84 | 195 | 0.0 | 0.0 | 0.00 | 0.00 | 0.00 | 64 | 1016.4 |
| 20260901072102 | 84 | 172 | 0.0 | 0.0 | 0.00 | 0.00 | 0.00 | 61 | 1016.3 |
| 20260901071601 | 84 | 180 | 0.0 | 0.0 | 0.00 | 0.00 | 0.00 | 62 | 1016.1 |
| 20260901071101 | 84 | 180 | 0.0 | 0.0 | 0.00 | 0.00 | 0.00 | 61 | 1016.3 |
| 20260901070555 | 83 | 165 | 0.0 | 1.0 | 0.00 | 0.00 | 0.00 | 62 | 1016.2 |
| 20260901070051 | 83 | 172 | 0.0 | 0.0 | 0.00 | 0.00 | 0.00 | 61 | 1016.2 |
| 20260901065544 | 83 | 172 | 0.0 | 0.0 | 0.00 | 0.00 | 0.00 | 61 | 1016.3 |
| 20260901065039 | 83 | 172 | 0.0 | 1.0 | 0.00 | 0.00 | 0.00 | 63 | 1016.5 |
| 20260901064536 | 83 | 180 | 0.0 | 0.0 | 0.00 | 0.00 | 0.00 | 61 | 1016.2 |
| 20260901064033 | 82 | 180 | 0.0 | 0.0 | 0.00 | 0.00 | 0.00 | 62 | 1016.3 |
| 20260901063529 | 82 | 187 | 0.0 | 0.0 | 0.00 | 0.00 | 0.00 | 62 | 1016.3 |
| 20260901063025 | 82 | 187 | 0.0 | 0.0 | 0.00 | 0.00 | 0.00 | 62 | 1016.1 |
| 20260901062520 | 81 | 187 | 0.0 | 0.0 | 0.00 | 0.00 | 0.00 | 63 | 1015.9 |
| 20260901062016 | 81 | 187 | 0.0 | 1.0 | 0.00 | 0.00 | 0.00 | 65 | 1016.1 |
| 20260901061512 | 81 | 180 | 0.0 | 1.0 | 0.00 | 0.00 | 0.00 | 66 | 1015.9 |
| 20260901061007 | 81 | 195 | 0.0 | 0.0 | 0.00 | 0.00 | 0.00 | 64 | 1016.1 |
| 20260901060501 | 81 | 195 | 0.0 | 1.0 | 0.00 | 0.00 | 0.00 | 64 | 1015.9 |
| 20260901060001 | 82 | 254 | 0.0 | 0.0 | 0.00 | 0.00 | 0.00 | 61 | 1015.9 |
| 20260901055458 | 82 | 225 | 0.0 | 0.0 | 0.00 | 0.00 | 0.00 | 60 | 1015.8 |
| 20260901054954 | 82 | 195 | 0.0 | 0.0 | 0.00 | 0.00 | 0.00 | 60 | 1015.7 |
| 20260901054451 | 82 | 180 | 0.0 | 0.0 | 0.00 | 0.00 | 0.00 | 60 | 1015.8 |
| 20260901053947 | 82 | 180 | 0.0 | 0.0 | 0.00 | 0.00 | 0.00 | 59 | 1015.7 |
| 20260901053442 | 82 | 180 | 0.0 | 0.0 | 0.00 | 0.00 | 0.00 | 60 | 1015.5 |
| 20260901052938 | 82 | 270 | 0.0 | 0.0 | 0.00 | 0.00 | 0.00 | 59 | 1015.3 |
| 20260901052433 | 82 | 270 | 0.0 | 0.0 | 0.00 | 0.00 | 0.00 | 59 | 1015.5 |
| 20260901051932 | 82 | 270 | 0.0 | 0.0 | 0.00 | 0.00 | 0.00 | 59 | 1015.5 |
| 20260901051428 | 82 | 270 | 0.0 | 0.0 | 0.00 | 0.00 | 0.00 | 58 | 1015.2 |
| 20260901050927 | 83 | 270 | 0.0 | 0.0 | 0.00 | 0.00 | 0.00 | 59 | 1015.4 |
| 20260901050423 | 83 | 270 | 0.0 | 0.0 | 0.00 | 0.00 | 0.00 | 58 | 1015.3 |
| 20260901045923 | 83 | 180 | 0.0 | 0.0 | 0.00 | 0.00 | 0.00 | 57 | 1015.4 |
| 20260901045418 | 83 | 188 | 0.0 | 0.0 | 0.00 | 0.00 | 0.00 | 57 | 1015.1 |
| 20260901044913 | 83 | 188 | 0.0 | 0.0 | 0.00 | 0.00 | 0.00 | 57 | 1015.2 |
| 20260901044409 | 83 | 188 | 0.0 | 0.0 | 0.00 | 0.00 | 0.00 | 56 | 1015.2 |
| 20260901043904 | 83 | 188 | 0.0 | 0.0 | 0.00 | 0.00 | 0.00 | 56 | 1015.0 |
| 20260901043401 | 83 | 188 | 0.0 | 0.0 | 0.00 | 0.00 | 0.00 | 56 | 1015.2 |
| 20260901042900 | 84 | 188 | 0.0 | 0.0 | 0.00 | 0.00 | 0.00 | 56 | 1015.1 |
| 20260901042355 | 84 | 188 | 0.0 | 0.0 | 0.00 | 0.00 | 0.00 | 56 | 1015.1 |
| 20260901041851 | 84 | 188 | 0.0 | 0.0 | 0.00 | 0.00 | 0.00 | 55 | 1015.1 |
| 20260901041346 | 84 | 188 | 0.0 | 0.0 | 0.00 | 0.00 | 0.00 | 55 | 1015.3 |
| 20260901040845 | 84 | 188 | 0.0 | 0.0 | 0.00 | 0.00 | 0.00 | 55 | 1015.4 |
| 20260901040345 | 84 | 188 | 0.0 | 0.0 | 0.00 | 0.00 | 0.00 | 55 | 1015.1 |
| 20260901035844 | 84 | 188 | 0.0 | 0.0 | 0.00 | 0.00 | 0.00 | 54 | 1015.3 |
| 20260901035343 | 84 | 188 | 0.0 | 0.0 | 0.00 | 0.00 | 0.00 | 54 | 1015.1 |
| 20260901034842 | 85 | 188 | 0.0 | 0.0 | 0.00 | 0.00 | 0.00 | 54 | 1015.4 |
| 20260901034337 | 85 | 188 | 0.0 | 0.0 | 0.00 | 0.00 | 0.00 | 53 | 1015.3 |
| 20260901033837 | 85 | 188 | 0.0 | 0.0 | 0.00 | 0.00 | 0.00 | 54 | 1015.3 |
| 20260901033336 | 85 | 188 | 0.0 | 0.0 | 0.00 | 0.00 | 0.00 | 52 | 1015.2 |
| 20260901032835 | 86 | 188 | 0.0 | 0.0 | 0.00 | 0.00 | 0.00 | 51 | 1015.1 |
| 20260901032334 | 86 | 188 | 0.0 | 0.0 | 0.00 | 0.00 | 0.00 | 52 | 1015.4 |
| 20260901031830 | 86 | 188 | 0.0 | 0.0 | 0.00 | 0.00 | 0.00 | 50 | 1015.1 |
| 20260901031325 | 86 | 188 | 0.0 | 0.0 | 0.00 | 0.00 | 0.00 | 50 | 1015.4 |
| 20260901030825 | 87 | 188 | 0.0 | 0.0 | 0.00 | 0.00 | 0.00 | 50 | 1015.2 |
| 20260901030321 | 87 | 188 | 0.0 | 0.0 | 0.00 | 0.00 | 0.00 | 50 | 1015.3 |
| 20260901025820 | 87 | 188 | 0.0 | 0.0 | 0.00 | 0.00 | 0.00 | 48 | 1015.0 |
| 20260901025315 | 87 | 188 | 0.0 | 1.0 | 0.00 | 0.00 | 0.00 | 48 | 1015.0 |
| 20260901024810 | 87 | 180 | 0.0 | 2.0 | 0.00 | 0.00 | 0.00 | 47 | 1014.9 |
| 20260901024309 | 87 | 194 | 0.0 | 0.0 | 0.00 | 0.00 | 0.00 | 48 | 1014.9 |
| 20260901023807 | 87 | 194 | 0.0 | 1.0 | 0.00 | 0.00 | 0.00 | 48 | 1014.8 |
| 20260901023302 | 87 | 188 | 0.0 | 1.0 | 0.00 | 0.00 | 0.00 | 49 | 1014.6 |
| 20260901022757 | 87 | 279 | 0.0 | 0.0 | 0.00 | 0.00 | 0.00 | 48 | 1014.6 |
| 20260901022253 | 87 | 279 | 0.0 | 0.0 | 0.00 | 0.00 | 0.00 | 48 | 1014.6 |
| 20260901021748 | 87 | 279 | 0.0 | 0.0 | 0.00 | 0.00 | 0.00 | 49 | 1014.4 |
| 20260901021244 | 87 | 279 | 0.0 | 0.0 | 0.00 | 0.00 | 0.00 | 48 | 1014.5 |
| 20260901020739 | 88 | 279 | 0.0 | 0.0 | 0.00 | 0.00 | 0.00 | 47 | 1014.4 |
| 20260901020234 | 88 | 279 | 0.0 | 0.0 | 0.00 | 0.00 | 0.00 | 46 | 1014.4 |
| 20260901015729 | 88 | 279 | 0.0 | 0.0 | 0.00 | 0.00 | 0.00 | 46 | 1014.2 |
| 20260901015225 | 89 | 279 | 0.0 | 0.0 | 0.00 | 0.00 | 0.00 | 45 | 1014.3 |
| 20260901014724 | 90 | 279 | 0.0 | 0.0 | 0.00 | 0.00 | 0.00 | 45 | 1014.3 |
| 20260901014220 | 90 | 279 | 0.0 | 1.0 | 0.00 | 0.00 | 0.00 | 44 | 1014.3 |
| 20260901013716 | 91 | 194 | 0.0 | 0.0 | 0.00 | 0.00 | 0.00 | 42 | 1014.2 |
| 20260901013211 | 91 | 194 | 0.0 | 0.0 | 0.00 | 0.00 | 0.00 | 43 | 1014.3 |
| 20260901012706 | 91 | 194 | 0.0 | 0.0 | 0.00 | 0.00 | 0.00 | 43 | 1014.0 |
| 20260901012207 | 92 | 194 | 0.0 | 0.0 | 0.00 | 0.00 | 0.00 | 43 | 1014.2 |
| 20260901011702 | 92 | 194 | 0.0 | 0.0 | 0.00 | 0.00 | 0.00 | 41 | 1014.1 |
| 20260901011202 | 93 | 180 | 0.0 | 0.0 | 0.00 | 0.00 | 0.00 | 43 | 1014.1 |
| 20260901010656 | 93 | 180 | 0.0 | 0.0 | 0.00 | 0.00 | 0.00 | 41 | 1014.0 |
| 20260901010151 | 94 | 180 | 0.0 | 0.0 | 0.00 | 0.00 | 0.00 | 40 | 1014.0 |
| 20260901005650 | 94 | 190 | 0.0 | 0.0 | 0.00 | 0.00 | 0.00 | 40 | 1013.8 |
| 20260901005146 | 95 | 174 | 0.0 | 1.0 | 0.00 | 0.00 | 0.00 | 39 | 1014.0 |
| 20260901004645 | 95 | 180 | 0.0 | 2.0 | 0.00 | 0.00 | 0.00 | 38 | 1014.1 |
| 20260901004140 | 95 | 180 | 0.0 | 2.0 | 0.00 | 0.00 | 0.00 | 38 | 1013.8 |
| 20260901003635 | 96 | 185 | 0.0 | 3.0 | 0.00 | 0.00 | 0.00 | 37 | 1013.8 |
| 20260901003134 | 96 | 180 | 0.0 | 1.0 | 0.00 | 0.00 | 0.00 | 37 | 1013.8 |
| 20260901002633 | 97 | 187 | 0.0 | 3.0 | 0.00 | 0.00 | 0.00 | 37 | 1014.0 |
| 20260901002128 | 98 | 180 | 0.0 | 0.0 | 0.00 | 0.00 | 0.00 | 37 | 1013.9 |
| 20260901001623 | 98 | 285 | 0.0 | 2.0 | 0.00 | 0.00 | 0.00 | 36 | 1014.1 |
| 20260901001119 | 98 | 180 | 0.0 | 1.0 | 0.00 | 0.00 | 0.00 | 36 | 1013.9 |
| 20260901000614 | 98 | 195 | 0.0 | 3.0 | 0.00 | 0.00 | 0.00 | 36 | 1013.9 |
| 20260901000109 | 98 | 186 | 0.0 | 3.0 | 0.00 | 0.00 | 0.00 | 36 | 1014.0 |
| 20260831235602 | 98 | 206 | 0.0 | 3.0 | 0.00 | 0.00 | 0.00 | 36 | 1014.1 |
| 20260831235058 | 99 | 180 | 0.0 | 1.0 | 0.00 | 0.00 | 0.00 | 36 | 1013.9 |
| 20260831234552 | 99 | 143 | 0.0 | 2.0 | 0.00 | 0.00 | 0.00 | 35 | 1014.0 |
| 20260831234049 | 100 | 90 | 0.0 | 0.0 | 0.00 | 0.00 | 0.00 | 35 | 1014.3 |
| 20260831233549 | 99 | 99 | 0.0 | 2.0 | 0.00 | 0.00 | 0.00 | 34 | 1013.9 |
| 20260831233044 | 99 | 270 | 0.0 | 2.0 | 0.00 | 0.00 | 0.00 | 35 | 1014.1 |
| 20260831232540 | 100 | 194 | 0.0 | 2.0 | 0.00 | 0.00 | 0.00 | 35 | 1013.9 |
| 20260831232035 | 100 | 277 | 1.0 | 2.0 | 0.00 | 0.00 | 0.00 | 35 | 1014.0 |
| 20260831231532 | 100 | 172 | 0.0 | 0.0 | 0.00 | 0.00 | 0.00 | 36 | 1013.9 |
| 20260831231027 | 100 | 261 | 0.0 | 1.0 | 0.00 | 0.00 | 0.00 | 35 | 1013.9 |
| 20260831230522 | 100 | 188 | 0.0 | 2.0 | 0.00 | 0.00 | 0.00 | 36 | 1014.0 |
| 20260831230023 | 100 | 251 | 2.0 | 2.0 | 0.00 | 0.00 | 0.00 | 35 | 1013.9 |
| 20260831225518 | 100 | 188 | 0.0 | 3.0 | 0.00 | 0.00 | 0.00 | 35 | 1014.1 |
| 20260831225018 | 100 | 180 | 0.0 | 3.0 | 0.00 | 0.00 | 0.00 | 35 | 1014.0 |
| 20260831224513 | 99 | 262 | 0.0 | 3.0 | 0.00 | 0.00 | 0.00 | 35 | 1014.2 |
| 20260831224008 | 99 | 278 | 1.0 | 3.0 | 0.00 | 0.00 | 0.00 | 36 | 1014.0 |
| 20260831223503 | 98 | 180 | 0.0 | 2.0 | 0.00 | 0.00 | 0.00 | 37 | 1014.2 |
| 20260831223000 | 98 | 185 | 2.0 | 2.0 | 0.00 | 0.00 | 0.00 | 37 | 1014.4 |
| 20260831222456 | 98 | 74 | 1.0 | 4.0 | 0.00 | 0.00 | 0.00 | 37 | 1014.4 |
| 20260831221955 | 100 | 192 | 0.0 | 4.0 | 0.00 | 0.00 | 0.00 | 37 | 1014.1 |
| 20260831221451 | 100 | 188 | 1.0 | 4.0 | 0.00 | 0.00 | 0.00 | 36 | 1014.3 |
| 20260831220946 | 99 | 172 | 0.0 | 3.0 | 0.00 | 0.00 | 0.00 | 38 | 1014.3 |
| 20260831220441 | 99 | 155 | 0.0 | 3.0 | 0.00 | 0.00 | 0.00 | 36 | 1014.3 |
| 20260831215936 | 98 | 165 | 0.0 | 2.0 | 0.00 | 0.00 | 0.00 | 37 | 1014.6 |
| 20260831215432 | 98 | 275 | 0.0 | 2.0 | 0.00 | 0.00 | 0.00 | 38 | 1014.6 |
| 20260831214928 | 98 | 250 | 2.0 | 3.0 | 0.00 | 0.00 | 0.00 | 37 | 1014.6 |
| 20260831214425 | 99 | 90 | 2.0 | 3.0 | 0.00 | 0.00 | 0.00 | 38 | 1014.6 |
| 20260831213921 | 100 | 202 | 2.0 | 3.0 | 0.00 | 0.00 | 0.00 | 36 | 1014.7 |
| 20260831213417 | 100 | 225 | 0.0 | 5.0 | 0.00 | 0.00 | 0.00 | 35 | 1014.8 |
| 20260831212917 | 101 | 175 | 2.0 | 5.0 | 0.00 | 0.00 | 0.00 | 34 | 1014.5 |
| 20260831212414 | 101 | 188 | 0.0 | 2.0 | 0.00 | 0.00 | 0.00 | 35 | 1014.7 |
| 20260831211913 | 100 | 192 | 0.0 | 3.0 | 0.00 | 0.00 | 0.00 | 35 | 1014.9 |
| 20260831211409 | 100 | 180 | 0.0 | 2.0 | 0.00 | 0.00 | 0.00 | 36 | 1014.8 |
| 20260831210908 | 99 | 264 | 2.0 | 3.0 | 0.00 | 0.00 | 0.00 | 36 | 1014.7 |
| 20260831210403 | 98 | 90 | 0.0 | 2.0 | 0.00 | 0.00 | 0.00 | 37 | 1014.9 |
| 20260831205859 | 99 | 90 | 0.0 | 3.0 | 0.00 | 0.00 | 0.00 | 36 | 1014.8 |
| 20260831205354 | 99 | 180 | 0.0 | 2.0 | 0.00 | 0.00 | 0.00 | 36 | 1014.8 |
| 20260831204849 | 98 | 180 | 0.0 | 3.0 | 0.00 | 0.00 | 0.00 | 38 | 1015.3 |
| 20260831204348 | 98 | 152 | 2.0 | 3.0 | 0.00 | 0.00 | 0.00 | 37 | 1015.3 |
| 20260831203848 | 100 | 203 | 0.0 | 2.0 | 0.00 | 0.00 | 0.00 | 36 | 1015.2 |
| 20260831203343 | 99 | 172 | 0.0 | 2.0 | 0.00 | 0.00 | 0.00 | 37 | 1015.5 |
| 20260831202841 | 98 | 180 | 0.0 | 3.0 | 0.00 | 0.00 | 0.00 | 37 | 1015.4 |
| 20260831202336 | 98 | 187 | 1.0 | 3.0 | 0.00 | 0.00 | 0.00 | 38 | 1015.6 |
| 20260831201836 | 99 | 78 | 0.0 | 2.0 | 0.00 | 0.00 | 0.00 | 38 | 1015.5 |
| 20260831201334 | 100 | 170 | 0.0 | 2.0 | 0.00 | 0.00 | 0.00 | 37 | 1015.3 |
| 20260831200831 | 100 | 176 | 2.0 | 3.0 | 0.00 | 0.00 | 0.00 | 36 | 1015.3 |
| 20260831200325 | 99 | 79 | 0.0 | 3.0 | 0.00 | 0.00 | 0.00 | 38 | 1015.6 |
| 20260831195821 | 97 | 74 | 0.0 | 2.0 | 0.00 | 0.00 | 0.00 | 39 | 1015.6 |
| 20260831195316 | 98 | 261 | 1.0 | 2.0 | 0.00 | 0.00 | 0.00 | 39 | 1016.0 |
| 20260831194812 | 97 | 261 | 2.0 | 7.0 | 0.00 | 0.00 | 0.00 | 39 | 1016.0 |
| 20260831194307 | 98 | 235 | 3.0 | 3.0 | 0.00 | 0.00 | 0.00 | 39 | 1015.9 |
| 20260831193806 | 97 | 96 | 2.0 | 2.0 | 0.00 | 0.00 | 0.00 | 39 | 1015.8 |
| 20260831193301 | 98 | 201 | 0.0 | 5.0 | 0.00 | 0.00 | 0.00 | 40 | 1016.2 |
| 20260831192756 | 98 | 279 | 0.0 | 3.0 | 0.00 | 0.00 | 0.00 | 40 | 1016.2 |
| 20260831192252 | 99 | 180 | 0.0 | 3.0 | 0.00 | 0.00 | 0.00 | 39 | 1016.1 |
| 20260831191747 | 100 | 270 | 0.0 | 2.0 | 0.00 | 0.00 | 0.00 | 38 | 1016.3 |
| 20260831191243 | 99 | 194 | 0.0 | 2.0 | 0.00 | 0.00 | 0.00 | 38 | 1016.4 |
| 20260831190739 | 99 | 270 | 0.0 | 2.0 | 0.00 | 0.00 | 0.00 | 37 | 1016.4 |
| 20260831190239 | 98 | 35 | 2.0 | 2.0 | 0.00 | 0.00 | 0.00 | 39 | 1016.3 |
| 20260831185733 | 99 | 270 | 0.0 | 2.0 | 0.00 | 0.00 | 0.00 | 38 | 1016.3 |
| 20260831185229 | 98 | 294 | 0.0 | 4.0 | 0.00 | 0.00 | 0.00 | 39 | 1016.5 |
| 20260831184728 | 97 | 278 | 0.0 | 3.0 | 0.00 | 0.00 | 0.00 | 39 | 1016.5 |
| 20260831184224 | 97 | 253 | 0.0 | 3.0 | 0.00 | 0.00 | 0.00 | 40 | 1016.6 |
| 20260831183724 | 98 | 180 | 0.0 | 3.0 | 0.00 | 0.00 | 0.00 | 41 | 1016.5 |
| 20260831183224 | 98 | 151 | 1.0 | 5.0 | 0.00 | 0.00 | 0.00 | 41 | 1016.6 |
| 20260831182723 | 97 | 297 | 0.0 | 4.0 | 0.00 | 0.00 | 0.00 | 41 | 1016.9 |
| 20260831182219 | 97 | 305 | 2.0 | 3.0 | 0.00 | 0.00 | 0.00 | 42 | 1016.9 |
| 20260831181718 | 97 | 169 | 2.0 | 4.0 | 0.00 | 0.00 | 0.00 | 43 | 1016.9 |
| 20260831181214 | 96 | 180 | 0.0 | 3.0 | 0.00 | 0.00 | 0.00 | 45 | 1017.1 |
| 20260831180708 | 96 | 319 | 0.0 | 7.0 | 0.00 | 0.00 | 0.00 | 43 | 1017.1 |
| 20260831180203 | 96 | 23 | 1.0 | 3.0 | 0.00 | 0.00 | 0.00 | 43 | 1017.1 |
| 20260831175703 | 97 | 255 | 0.0 | 5.0 | 0.00 | 0.00 | 0.00 | 43 | 1017.4 |
| 20260831175200 | 98 | 270 | 0.0 | 4.0 | 0.00 | 0.00 | 0.00 | 43 | 1017.3 |
| 20260831174700 | 97 | 185 | 0.0 | 2.0 | 0.00 | 0.00 | 0.00 | 44 | 1017.5 |
| 20260831174155 | 97 | 261 | 1.0 | 3.0 | 0.00 | 0.00 | 0.00 | 44 | 1017.5 |
| 20260831173653 | 97 | 180 | 1.0 | 3.0 | 0.00 | 0.00 | 0.00 | 46 | 1017.7 |
| 20260831173149 | 97 | 203 | 0.0 | 4.0 | 0.00 | 0.00 | 0.00 | 44 | 1017.8 |
| 20260831172649 | 95 | 279 | 2.0 | 3.0 | 0.00 | 0.00 | 0.00 | 46 | 1017.7 |
| 20260831172144 | 97 | 277 | 0.0 | 3.0 | 0.00 | 0.00 | 0.00 | 44 | 1018.0 |
| 20260831171639 | 96 | 79 | 0.0 | 4.0 | 0.00 | 0.00 | 0.00 | 45 | 1018.1 |
| 20260831171137 | 96 | 227 | 3.0 | 3.0 | 0.00 | 0.00 | 0.00 | 46 | 1018.0 |
| 20260831170632 | 96 | 204 | 3.0 | 3.0 | 0.00 | 0.00 | 0.00 | 45 | 1017.9 |
| 20260831170129 | 96 | 254 | 0.0 | 3.0 | 0.00 | 0.00 | 0.00 | 46 | 1018.0 |
| 20260831165625 | 97 | 264 | 2.0 | 2.0 | 0.00 | 0.00 | 0.00 | 44 | 1018.0 |
| 20260831165121 | 96 | 251 | 0.0 | 2.0 | 0.00 | 0.00 | 0.00 | 45 | 1018.0 |
| 20260831164617 | 96 | 284 | 4.0 | 4.0 | 0.00 | 0.00 | 0.00 | 45 | 1017.9 |
| 20260831164113 | 96 | 180 | 0.0 | 2.0 | 0.00 | 0.00 | 0.00 | 44 | 1017.8 |
| 20260831163607 | 94 | 192 | 1.0 | 3.0 | 0.00 | 0.00 | 0.00 | 46 | 1017.9 |
| 20260831163103 | 94 | 260 | 2.0 | 3.0 | 0.00 | 0.00 | 0.00 | 46 | 1018.1 |
| 20260831162602 | 93 | 262 | 0.0 | 3.0 | 0.00 | 0.00 | 0.00 | 47 | 1018.1 |
| 20260831162100 | 94 | 191 | 0.0 | 2.0 | 0.00 | 0.00 | 0.00 | 46 | 1018.3 |
| 20260831161556 | 93 | 183 | 3.0 | 3.0 | 0.00 | 0.00 | 0.00 | 47 | 1018.1 |
| 20260831161052 | 94 | 260 | 0.0 | 3.0 | 0.00 | 0.00 | 0.00 | 47 | 1017.9 |
| 20260831160551 | 94 | 274 | 2.0 | 3.0 | 0.00 | 0.00 | 0.00 | 47 | 1017.9 |
| 20260831160048 | 92 | 251 | 3.0 | 3.0 | 0.00 | 0.00 | 0.00 | 49 | 1018.1 |
| 20260831155547 | 93 | 203 | 1.0 | 5.0 | 0.00 | 0.00 | 0.00 | 50 | 1018.1 |
| 20260831155043 | 93 | 90 | 0.0 | 1.0 | 0.00 | 0.00 | 0.00 | 49 | 1018.1 |
| 20260831154539 | 93 | 262 | 0.0 | 2.0 | 0.00 | 0.00 | 0.00 | 50 | 1018.1 |